Regional Weather Roundup
Issued by NWS

Home | Current Version | Previous Version | Graphics & Text | Print | Product List | Glossary On
Versions: 1 2 3 4 5 6 7 8 9 10 11 12 13 14 15 16 17 18 19 20 21 22 23 24 25 26 27 28 29 30 31 32 33 34 35 36 37 38 39 40 41 42 43 44 45 46 47 48 49 50
686
ASUS44 KLIX 271510
RWRLA
LOUISIANA WEATHER ROUNDUP
NATIONAL WEATHER SERVICE NEW ORLEANS LA
900 AM CST THU NOV 27 2014

NOTE: "FAIR" INDICATES FEW OR NO CLOUDS BELOW 12,000 FEET WITH NO
      SIGNIFICANT WEATHER AND/OR OBSTRUCTIONS TO VISIBILITY.
      SKY/WX - SKY CONDITION AND SIGNIFICANT WEATHER.
      TMP - AIR TEMPERATURE.    DP   - DEWPOINT TEMPERATURE.
      RH  - RELATIVE HUMIDITY.  PRES - PRESSURE.
      HX  - HEAT INDEX.         WCI  - WIND CHILL INDEX.

*  THESE STATIONS ARE NOT NWS OR FAA STATIONS AND ARE NOT UNDER
   NWS QUALITY CONTROL.

LAZ040-048-061>063-065-066-069-271600-
SOUTHEAST LOUISIANA

CITY           SKY/WX    TMP DP  RH WIND       PRES   REMARKS
N.O. AUDUBON     N/A     56  35  46 MISG        N/A
N.O. INTL ARPT SUNNY     54  35  48 N14       30.45R
N.O. LAKEFRONT SUNNY     54  36  50 N18       30.45R
N.O. DOWNTOWN* FAIR      54  32  43 N10G21    30.44R
SLIDELL        SUNNY     52  33  48 N14G22    30.44R
BATON ROUGE    SUNNY     50  33  52 N9G20     30.47R
BOOTHVILLE     SUNNY     56  38  50 N15G23    30.43R
BELLE CHASSE   SUNNY     56  32  40 N13G20    30.43R
BOGALUSA*        N/A     51  36  56 N9        30.46R
NEW ROADS*     FAIR      50  33  51 N10       30.47R
GONZALES*      FAIR      52  33  49 N10G18    30.46R
HAMMOND*       SUNNY     52  34  50 N14       30.47R
HOUMA*         SUNNY     54  37  54 N14       30.45R
PORT FOURCHON* SUNNY     57  41  54 N13       30.46S

$$

LAZ041-044-053-054-271600-
SOUTHWEST LOUISIANA

CITY           SKY/WX    TMP DP  RH WIND       PRES   REMARKS
LAKE CHARLES   SUNNY     52  33  48 NE13      30.48R
LAFAYETTE      SUNNY     52  35  52 N15G23    30.47R
PATTERSON      SUNNY     54  37  54 NE13        N/A
SALT POINT       N/A     58  38  47 N8        30.44R
NEW IBERIA     SUNNY     53  35  50 NE18      30.46S
CHENAULT AIRPK SUNNY     52  32  46 NE12      30.49R

$$

LAZ027-028-271600-
CENTRAL LOUISIANA

CITY           SKY/WX    TMP DP  RH WIND       PRES   REMARKS
FORT POLK      SUNNY     48  31  51 N10G17    30.48R
ALEXANDRIA INT SUNNY     49  32  52 N9        30.49R
ALEXANDRIA     SUNNY     50  31  48 VRB6      30.50R

$$

LAZ001-002-271600-
NORTHWEST LOUISIANA

CITY           SKY/WX    TMP DP  RH WIND       PRES   REMARKS
SHREVEPORT     SUNNY     46  29  51 NW12      30.53R
BARKSDALE AFB  SUNNY     45  29  53 N13       30.54R
DTN SHREVEPORT SUNNY     44  28  53 N10       30.54R

$$

LAZ014-016-271600-
NORTHEAST LOUISIANA

CITY           SKY/WX    TMP DP  RH WIND       PRES   REMARKS
MONROE         SUNNY     44  31  60 N10       30.53R
TALLULAH       SUNNY     45  31  58 N17       30.51R

$$




USA.gov is the U.S. government's official web portal to all federal, state and local government web resources and services.